STARLINK-35273, 65805

Orbit data source: Space-Track

STARLINK-35273, 65805 is a payload satellite owned by SpaceX/Seattle (US) in SSO that was launched on Fri, 26 Sep 2025 UTC via an FALCON 9 launch vehicle from the Air Force Western Test Range (AFWTR). Payload-class satellites include a variety of spacecraft equipped with specific instruments for various scientific and technological missions. These include communications satellites like Starlink; space stations such as the ISS; scientific satellites like the Hubble; Earth observation satellites from companies like Planet Labs, Umbra, and HawkEye 360; GPS; miniature CubeSats for education and research; and military/defense satellites.

Loading next visibility...
Identifier
65805, 2025-218Q
Orbit
SSO
Country
Flag of USUS
Related business
Manufacturer
SpaceX/Seattle
Mission
Operational Commercial Communications
Bus & Motor
STARLINK V2MO, Unknown motor
Mass
575 kg wet, ~530 kg dry
Launch date (UTC)
2025-09-26 (1 month ago)
Launch vehicle
FALCON 9
Launch site
Air Force Western Test Range (AFWTR)
Object type
Payload
Rocket body
Debris
Shape & HBR
Box + 2 Pan, 17.7 m
Radar Cross Section
36.964 m²

Expand to show TLE details & history
Last TLE update: 2 days ago

TLE from 2 days ago
0 STARLINK-35273
1 65805U 25218Q   25312.57702507  .00009781  00000-0  68082-3 0  9990
2 65805  97.6022 173.5365 0002020  91.2028 268.9431 15.05665480  6748
Epoch: 2025-11-08T13:50Z
TLE epoch observation values (Epoch: 2025-11-08T13:50:54.966Z)
Latitude
0.00008°
Longitude
-82.19718°
Altitude
552.555 km
Speed
7.585 km/s
True Right ascension
11h 34m 08s
True Declination
0° 00' 00"
Sunlit
Object was in daylight at epoch
Visualization orbit readout
Latitude
Unknown
Longitude
Unknown
Altitude
Unknown
Speed
Unknown
Apparent Right ascension
Unknown
Apparent Declination
Unknown
Sunlit
N/A
Visualization observer readout
Local Sidereal Time
03:31:11
Azimuth
Unknown
Elevation
Unknown
Doppler factor
Unknown
Orbital elements
Apogee altitude
547.856 km
Perigee altitude
545.058 km
Semi-major axis
6,924.594 km
Eccentricity
0.0002
Inclination
97.6022°
RAAN
173.5365°
Arg. of periapsis
91.2028°
True anomaly
268.91996°
Mean anomaly
268.9431°
Eccentric anomaly
268.93153°
Mean motion
3.76662 °/min
Orbital period
95.58 mins
BSTAR
0.00068082
Loading maneuver chart data...
Computing Atmospheric mass density...
Loading historical data...
Loading historical data...
Loading historical data...
Loading historical data...
Loading historical data...
Loading historical data...
Loading historical data...

Documentation

Showing up to 5 results
|